Location: Mount Tamalpais State Park
(37.9108°N, 122.6128°W)
Time: 22:09:41
(UTC-07:00)

Cosmos 1814 Rocket - Visible Passes

Search period start: 22 October 2014 00:00
Search period end: 01 November 2014 00:00
Orbit: 746 x 788 km, 74.1° (Epoch: 22 October)

Date Brightness Start Highest point End Pass type
(mag) Time Alt. Az. Time Alt. Az. Time Alt. Az.
22 Oct 6.6 03:58:00 15° NE 03:58:00 15° NE 03:59:03 10° NE visible
22 Oct 5.4 05:38:18 23° NNW 05:38:18 23° NNW 05:40:58 10° N visible
23 Oct 5.8 05:02:19 21° N 05:02:19 21° N 05:04:03 10° N visible
24 Oct 6.5 04:26:14 14° NNE 04:26:14 14° NNE 04:26:52 10° NNE visible
